Tracking 19903 objects as of 16-Oct-2019
HD Live streaming from Space Station
objects crossing your sky now

COSMOS 1375 DEB

Track COSMOS 1375 DEB now!
10-day predictions


NORAD ID: 16379
Int'l Code: 1982-055T
Perigee: 959.5 km
Apogee: 997.2 km
Inclination: 65.8 °
Period: 104.5 minutes
Semi major axis: 7349 km
RCS: 0.1296 m2 (medium)
Launch date: June 6, 1982
Source: Commonwealth of Independent States (former USSR) (CIS)
Launch site: PLESETSK MISSILE AND SPACE COMPLEX (PKMTR)

Note: This is SATELLITE DEBRIS
aabbcc
Your satellite tracking list
Your tracking list is empty




NASA's NSSDC Master Catalog

Two Line Element Set (TLE):
1 16379U 82055T   19288.91112792 -.00000040 +00000-0 +40693-4 0  9997
2 16379 065.8359 155.9057 0025651 238.2923 218.8460 13.77940783289416
Source of the keplerian elements: AFSPC